www.pogodaiklimat.ru

Погода и климат >> Архив погоды >> Индия >> Джаркханд >> Ранчи


ПОГОДА в Ранчи

  • Прогноз погоды в Ранчи
  • Монитор погоды в Ранчи

АРХИВ ПОГОДЫ в Ранчи

Время (UTC), дата Ветер
(напр.,м/с)
 
Видим.   Явления Облачность Т
(С)
Тd
(С)
f
(%)
Тe
(С)
Тes
(С)
Комфортность P
(гПа)
Po
(гПа)
Тmin
(С)
Tmax
(С)
R
(мм)
R24
(мм)
S
(см)
09 12.08 СВ 3 4000 м мгла 9/6 450 м
[Sc diur, vesp Ac trans]
+28.5 +23.5 74 +39 +41 очень
душно
996.1 926.3
12 12.08 штиль 0 2000 м мгла {гроза, дождь} 9/5 450 м
[Sc Ac trans]
+24.6 +23.7 95 +33 +34 очень
душно
996.9 926.1 +30.4 5
15 12.08 штиль 0 2000 м слаб. дождь 9/5 450 м
[Cb calv Ac trans]
+25.4 +24.8 96 +36 +36 очень
душно
998.1 927.4 5
18 12.08 штиль 0 2000 м мгла {дождь} 9/5 450 м
[Sc Ac trans]
+25.2 +24.6 96 +35 +35 очень
душно
998.7 928.0 5
21 12.08 штиль 0 2000 м мгла 9/5 450 м
[Sc Ac trans]
+24.8 +24.5 98 +35 +35 очень
душно
998.1 927.2 5
00 13.08 В 2 2000 м мгла 9/5 450 м
[Sc Ac trans]
+24.4 +23.5 95 +33 +33 очень
душно
997.4 926.6 5
03 13.08 В 2 2000 м мгла 9/6 300 м
[St Ac trans]
+25.4 +24.3 94 +35 +38 очень
душно
999.0 928.3 +23.6 5
06 13.08 СВ 2 2000 м мгла {дождь} 9/6 300 м
[St Ac trans]
+28.4 +24.3 78 +40 +44 очень
душно
997.8 927.8 1
09 13.08 В 2 1000 м дождь {гроза} 9/8 300 м
[Frnb Ac trans]
+24.8 +23.7 94 +34 +36 очень
душно
996.7 925.9 15
12 13.08 В 2 2000 м слаб. дождь {гроза} 9/8 300 м
[Cb calv Ac trans]
+24.4 +24.1 98 +34 +34 очень
душно
996.2 925.4 +28.2 18
15 13.08 ЮВ 2 2000 м слаб. дождь 10/6 300 м
[Frnb As op]
+24.2 +23.9 98 +33 +33 очень
душно
999.1 928.1 25
18 13.08 ЮВ 2 2000 м слаб. дождь 10/6 300 м
[Frnb As op]
+24.2 +23.9 98 +33 +33 очень
душно
999.3 928.3 26
21 13.08 штиль 0 2000 м слаб. дождь 10/6 300 м
[Frnb As op]
+24.0 +23.7 98 +33 +33 очень
душно
998.1 927.1 38
00 14.08 Ю 2 2000 м слаб. дождь 10/6 300 м
[Frnb As op]
+23.8 +23.2 96 +32 +32 очень
душно
998.2 927.7 43
03 14.08 Ю 2 2000 м мгла {дождь} 10/8 300 м
[Frnb As op]
+23.6 +23.3 98 +32 +32 очень
душно
1000.7 929.3 +22.4 44
06 14.08 Ю 4 2000 м слаб. морось 10/8 300 м
[Frnb As op]
+24.0 +23.7 98 +33 +33 очень
душно
1001.8 930.4 0.1
09 14.08 Ю 3 2000 м слаб. морось 10/6 300 м
[Frnb As op]
+25.4 +24.0 92 +35 +36 очень
душно
1000.4 929.5 0.3
12 14.08 Ю 3 2000 м слаб. дождь 10/8 300 м
[Frnb As op]
+25.2 +23.5 90 +34 +34 очень
душно
1000.0 929.2 +26.0 0.3
15 14.08 Ю 3 2000 м слаб. морось 10/6 300 м
[St As op]
+24.4 +22.7 90 +32 +32 очень
душно
1003.1 931.8 0.3
18 14.08 Ю 2 2000 м мгла 10/6 300 м
[Frnb As op]
+24.2 +22.8 92 +32 +32 очень
душно
1004.4 933.1 0.3
21 14.08 Ю 2 2000 м мгла 10/6 300 м
[Frnb As op]
+24.0 +22.8 93 +32 +32 очень
душно
1003.5 932.1 0.3
00 15.08 штиль 0 2000 м мгла 10/6 300 м
[St As op]
+23.0 +22.1 95 +31 +31 очень
душно
1003.4 931.6 1
03 15.08 ЮЗ 3 2000 м мгла 9/6 300 м
[St Ac trans]
+24.4 +23.8 96 +33 +35 очень
душно
1005.0 933.6 +22.0 0.6
06 15.08 Ю 3 4000 м мгла 9/5 450 м
[Sc Ac trans]
+26.8 +23.1 80 +36 +40 очень
душно
1004.7 933.8
09 15.08 Ю 3 4000 м мгла 9/5 450 м
[Sc Ac trans]
+29.4 +22.3 66 +38 +41 очень
душно
1001.6 931.6
12 15.08 Ю 3 4000 м мгла 6/4 540 м
[Sc Ac trans]
+28.6 +22.6 70 +38 +38 очень
душно
1001.0 930.8 +30.2
15 15.08 Ю 1 4000 м мгла 5/4 540 м
[Sc Ac trans]
+25.4 +23.4 89 +34 +34 очень
душно
1003.6 933.1
18 15.08 Ю 2 4000 м мгла 5/4 540 м
[Sc Ac trans]
+24.8 +22.8 89 +33 +33 очень
душно
1005.2 933.8
21 15.08 ЮЗ 2 4000 м мгла 5/3 540 м
[Sc Ac trans]
+23.8 +22.6 93 +31 +31 очень
душно
1003.6 932.1
00 16.08 ЮЗ 1 2000 м мгла 5/3 540 м
[Sc Ac trans]
+23.4 +22.5 95 +32 +32 очень
душно
1003.7 932.2
03 16.08 ЮЗ 2 4000 м мгла 8/4 540 м
[Sc Ac trans]
+26.0 +23.2 85 +35 +39 очень
душно
1003.8 932.9 +22.5
06 16.08 З 2 4000 м мгла 8/8 540 м
[Sc diur, vesp]
+30.4 +22.8 64 +40 +44 очень
душно
1003.1 933.1
09 16.08 СВ 2 4000 м мгла 9/8 540 м
[Sc diur, vesp Ac trans]
+30.6 +23.3 65 +41 +43 опасность
перегрева
1000.9 931.2
12 16.08 штиль 0 1000 м гроза, ливневой дождь 9/5 450 м
[Cb cap Ac trans]
+23.6 +23.3 98 +32 +32 очень
душно
1001.6 930.2 +31.5 23
15 16.08 штиль 0 2000 м мгла {гроза, дождь} 9/5 450 м
[Cb calv Ac trans]
+24.4 +24.1 98 +34 +34 очень
душно
1003.2 931.9 26
18 16.08 штиль 0 2000 м мгла 9/5 450 м
[Sc Ac trans]
+24.2 +23.9 98 +33 +33 очень
душно
1004.0 932.7 26
21 16.08 штиль 0 2000 м мгла 9/5 450 м
[Sc Ac trans]
+23.8 +23.2 96 +32 +32 очень
душно
1003.5 932.0 26
00 17.08 штиль 0 2000 м мгла 9/5 450 м
[Sc Ac trans]
+23.4 +22.8 96 +33 +33 очень
душно
1003.2 931.7 26
03 17.08 штиль 0 2000 м мгла 9/5 450 м
[Sc Ac trans]
+26.4 +24.4 89 +37 +41 очень
душно
1004.1 933.2 +22.6 26
06 17.08 С 1 4000 м мгла 9/5 450 м
[Sc Ac trans]
+28.6 +24.4 78 +40 +47 очень
душно
1003.3 933.0
09 17.08 СВ 1 4000 м мгла 9/6 450 м
[Cb calv Ac trans]
+30.2 +24.4 71 +42 +46 опасность
перегрева
1001.0 931.3
12 17.08 штиль 0 4000 м мгла 9/5 450 м
[Cb calv Ac trans]
+27.0 +23.9 83 +37 +37 очень
душно
1001.7 931.0 +30.4
15 17.08 З 1 2000 м мгла 9/5 450 м
[Cb calv Ac trans]
+25.6 +23.9 90 +35 +35 очень
душно
1003.0 932.0
18 17.08 штиль 0 2000 м мгла 9/5 450 м
[Sc Ac trans]
+25.4 +24.6 95 +36 +36 очень
душно
1003.5 932.5
21 17.08 штиль 0 2000 м мгла 9/5 450 м
[Sc Ac trans]
+24.4 +23.5 95 +33 +33 очень
душно
1002.9 931.6
00 18.08 штиль 0 2000 м мгла 9/5 450 м
[Sc Ac trans]
+24.4 +23.8 96 +33 +33 очень
душно
1002.9 931.6
03 18.08 штиль 0 2000 м слаб. морось 9/6 450 м
[Cb calv Ac trans]
+25.8 +24.1 90 +36 +38 очень
душно
1004.3 933.1 +24.5 0.0
06 18.08 Ю 2 1000 м гроза, ливневой дождь 10/6 450 м
[Cb cap Ac trans]
+23.4 +23.4 100 +33 +37 очень
душно
1004.6 933.0 9
09 18.08 СЗ 2 2000 м гроза, ливневой дождь 10/6 450 м
[Cb cap As op]
+23.4 +22.8 96 +33 +34 очень
душно
1003.1 931.6 62
12 18.08 С 2 2000 м слаб. дождь {гроза} 10/6 450 м
[Cb calv As op]
+23.4 +22.8 96 +33 +33 очень
душно
1001.9 930.5 +27.0 63
15 18.08 С 1 2000 м мгла {дождь} 10/5 450 м
[Sc As op]
+23.4 +22.8 96 +33 +33 очень
душно
1003.9 932.4 63
18 18.08 штиль 0 2000 м мгла 10/5 450 м
[Sc As op]
+23.4 +23.1 98 +33 +33 очень
душно
1004.4 932.9 63
21 18.08 штиль 0 2000 м мгла 10/5 450 м
[Sc As op]
+23.4 +23.1 98 +33 +33 очень
душно
1003.0 931.5 63
00 19.08 штиль 0 2000 м слаб. дождь {морось} 10/6 450 м
[Sc As op]
+23.4 +23.1 98 +33 +33 очень
душно
1003.0 931.5 63
03 19.08 штиль 0 2000 м мгла {дождь} 10/5 450 м
[Sc As op]
+24.4 +23.8 96 +33 +34 очень
душно
1004.1 931.7 +22.4 64
06 19.08 Ю 2 2000 м мгла 9/5 450 м
[Sc diur, vesp Ac trans]
+26.8 +24.0 85 +37 +43 очень
душно
1004.0 933.1

 

Местоположение метеостанции Ранчи (Джаркханд, Индия): широта 23.32 долгота 85.32 высота над уровнем моря 652 м.

В архиве по умолчанию представлена погода в Ранчи за последнюю неделю. Архивные данные за месяц целиком и за предыдущие месяцы, начиная с января 2011 года, Вы можете получить, выбрав интересующий диапазон дат из раскрывающегося списка и нажав кнопку "Ввод!".


*Определитесь, кто Вы:
робот инопланетянин человек

Внимание! Время в таблицах - всемирное. Для получения местного времени необходимо прибавить поправку, которая равна 5.5 ч.

Смотрите также архив погоды в соседних городах и на ближайших метеорологических станциях:

Погода в Чайбасе (Джаркханд, Индия) (100 км)
Погода в Джамшедпуре (Джаркханд, Индия) (104 км)
Погода в Пурулии (Западная Бенгалия, Индия) (112 км)
Погода в Далтонгандже (Джаркханд, Индия) (151 км)
Погода в Гае (Бихар, Индия) (163 км)
Погода в Асансоле (Западная Бенгалия, Индия) (174 км)
Погода в Банкуре (Западная Бенгалия, Индия) (177 км)
Погода в Сундаргархе (Орисса, Индия) (188 км)
Погода в Кендуджхаре (Орисса, Индия) (190 км)
Погода в Джхарсугуде (Орисса, Индия) (201 км)

Пояснения к столбцам:

Ветер - указаны скорость ветра в м/с - средняя за 10 мин, порывы в срок и между сроками (в фигурных скобках) и направление, откуда дует ветер: С - северный, СВ - северо-восточный, В - восточный, ЮВ - юго-восточный, Ю - южный, ЮЗ - юго-западный, З - западный, СЗ - северо-западный.
Видимость - горизонтальная дальность видимости в метрах или километрах. При видимости от 1 до 10 км при отсутствии осадков обычно наблюдается дымка, при ухудшении видимости до 1 км и менее - туман. В сухую погоду видимость может ухудшаться дымом, пылью или мглою.
Явления - указаны атмосферные явления, наблюдавшиеся в срок или в последний час перед сроком; фигурными скобками обозначены явления, наблюдавшиеся между сроками (за 1-3 часа до срока); квадратными скобками обозначены град или гололедные отложения с указанием их диаметра в мм.
Облачность - указаны через наклонную черту общая и нижняя облачность в баллах и высота нижней границы облаков в метрах; квадратными скобками обозначены формы облаков: Ci - перистые, Cs - перисто-слоистые, Cc - перисто-кучевые, Ac - высококучевые, As - высокослоистые, Sc - слоисто-кучевые, Ns - слоисто-дождевые, Cu - кучевые, Cb - кучево-дождевые. Подробнее классификацию облаков см. в Атласе облаков (PDF).
T - Температура воздуха - температура, измеренная на высоте 2 м над землей.
Td - Температура точки росы - температура, при понижении до которой содержащийся в воздухе водяной пар достигнет насыщения.
f - Относительная влажность воздуха - влажноcть воздуха, измеренная на высоте 2 м над землей.
Te - Эффективная температура - температура, которую ощущает одетый по сезону человек в тени. Характеристика душности погоды. При расчете учитывается влияние влажности воздуха и скорости ветра на теплоощущения человека.
Tes - Эффективная температура на солнце - температура, которую ощущает человек, с поправкой на солнечный нагрев. Характеристика знойности погоды. Зависит от высоты солнца над горизонтом, облачности и скорости ветра. Ночью, в пасмурную погоду, а также при ветре 12 м/с и более поправка равна нулю.
P - Атмосферное давление - приведенное к уровню моря атмосферное давление.
Po - Атмосферное давление - измеренное на уровне метеостанции атмосферное давление.
Tmin - Минимальная температура - минимум температуры воздуха на высоте 2 м над землей.
Tmax - Максимальная температура - максимум температуры воздуха на высоте 2 м над землей.
R - Количество осадков - Количество выпавших осадков за период времени, мм. При наведении курсора мыши на число - период времени, за который выпало указанное количество осадков.
R24 - Количество осадков - Количество выпавших осадков за 24 часа, мм.
S - Снежный покров - Высота снежного покрова, см. При наведении курсора мыши на число - состояние снежного покрова и степень покрытия местности в баллах.